Year,Month,Day,Hour,Minute,Value (Times are PST for temperature in C)
2011,07,24,00,00,12.00
2011,07,24,00,01,12.00
2011,07,24,00,02,12.00
2011,07,24,00,03,12.00
2011,07,24,00,04,12.00
2011,07,24,00,05,12.00
2011,07,24,00,06,12.00
2011,07,24,00,07,11.90
2011,07,24,00,08,11.90
2011,07,24,00,09,11.90
2011,07,24,00,10,11.90
2011,07,24,00,11,11.90
2011,07,24,00,12,11.90
2011,07,24,00,13,11.90
2011,07,24,00,14,11.90
2011,07,24,00,15,11.80
2011,07,24,00,16,11.80
2011,07,24,00,17,11.80
2011,07,24,00,18,11.80
2011,07,24,00,19,11.80
2011,07,24,00,20,11.80
2011,07,24,00,21,11.80
2011,07,24,00,22,11.80
2011,07,24,00,23,11.80
2011,07,24,00,24,11.70
2011,07,24,00,25,11.70
2011,07,24,00,26,11.70
2011,07,24,00,27,11.60
2011,07,24,00,28,11.60
2011,07,24,00,29,11.60
2011,07,24,00,30,11.60
2011,07,24,00,31,11.60
2011,07,24,00,32,11.60
2011,07,24,00,33,11.60
2011,07,24,00,34,11.60
2011,07,24,00,35,11.60
2011,07,24,00,36,11.60
2011,07,24,00,37,11.50
2011,07,24,00,38,11.40
2011,07,24,00,39,11.40
2011,07,24,00,40,11.40
2011,07,24,00,41,11.40
2011,07,24,00,42,11.40
2011,07,24,00,43,11.40
2011,07,24,00,44,11.40
2011,07,24,00,45,11.40
2011,07,24,00,46,11.40
2011,07,24,00,47,11.40
2011,07,24,00,48,11.40
2011,07,24,00,49,11.40
2011,07,24,00,50,11.40
2011,07,24,00,51,11.40
2011,07,24,00,52,11.40
2011,07,24,00,53,11.40
2011,07,24,00,54,11.40
2011,07,24,00,55,11.40
2011,07,24,00,56,11.40
2011,07,24,00,57,11.40
2011,07,24,00,58,11.40
2011,07,24,00,59,11.40
2011,07,24,01,00,11.40
2011,07,24,01,01,11.40
2011,07,24,01,02,11.40
2011,07,24,01,03,11.40
2011,07,24,01,04,11.40
2011,07,24,01,05,11.40
2011,07,24,01,06,11.40
2011,07,24,01,07,11.40
2011,07,24,01,08,11.40
2011,07,24,01,09,11.40
2011,07,24,01,10,11.40
2011,07,24,01,11,11.40
2011,07,24,01,12,11.40
2011,07,24,01,13,11.40
2011,07,24,01,14,11.40
2011,07,24,01,15,11.40
2011,07,24,01,16,11.40
2011,07,24,01,17,11.40
2011,07,24,01,18,11.40
2011,07,24,01,19,11.40
2011,07,24,01,20,11.40
2011,07,24,01,21,11.40
2011,07,24,01,22,11.40
2011,07,24,01,23,11.40
2011,07,24,01,24,11.40
2011,07,24,01,25,11.40
2011,07,24,01,26,11.40
2011,07,24,01,27,11.40
2011,07,24,01,28,11.40
2011,07,24,01,29,11.40
2011,07,24,01,30,11.40
2011,07,24,01,31,11.40
2011,07,24,01,32,11.40
2011,07,24,01,33,11.40
2011,07,24,01,34,11.40
2011,07,24,01,35,11.40
2011,07,24,01,36,11.40
2011,07,24,01,37,11.40
2011,07,24,01,38,11.30
2011,07,24,01,39,11.30
2011,07,24,01,40,11.30
2011,07,24,01,41,11.30
2011,07,24,01,42,11.30
2011,07,24,01,43,11.30
2011,07,24,01,44,11.30
2011,07,24,01,45,11.30
2011,07,24,01,46,11.30
2011,07,24,01,47,11.20
2011,07,24,01,48,11.20
2011,07,24,01,49,11.20
2011,07,24,01,50,11.20
2011,07,24,01,51,11.20
2011,07,24,01,52,11.20
2011,07,24,01,53,11.20
2011,07,24,01,54,11.10
2011,07,24,01,55,11.10
2011,07,24,01,56,11.10
2011,07,24,01,57,11.10
2011,07,24,01,58,11.10
2011,07,24,01,59,11.10
2011,07,24,02,00,11.10
2011,07,24,02,01,11.10
2011,07,24,02,02,11.10
2011,07,24,02,03,11.10
2011,07,24,02,04,11.10
2011,07,24,02,05,11.10
2011,07,24,02,06,11.10
2011,07,24,02,07,11.10
2011,07,24,02,08,11.10
2011,07,24,02,09,11.10
2011,07,24,02,10,11.10
2011,07,24,02,11,11.10
2011,07,24,02,12,11.10
2011,07,24,02,13,11.10
2011,07,24,02,14,11.10
2011,07,24,02,15,11.10
2011,07,24,02,16,11.10
2011,07,24,02,17,11.10
2011,07,24,02,18,11.10
2011,07,24,02,19,11.10
2011,07,24,02,20,11.10
2011,07,24,02,21,11.10
2011,07,24,02,22,11.10
2011,07,24,02,23,11.10
2011,07,24,02,24,11.10
2011,07,24,02,25,11.10
2011,07,24,02,26,11.10
2011,07,24,02,27,11.10
2011,07,24,02,28,11.10
2011,07,24,02,29,11.10
2011,07,24,02,30,11.10
2011,07,24,02,31,11.10
2011,07,24,02,32,11.10
2011,07,24,02,33,11.10
2011,07,24,02,34,11.10
2011,07,24,02,35,11.10
2011,07,24,02,36,11.10
2011,07,24,02,37,11.00
2011,07,24,02,38,10.90
2011,07,24,02,39,10.90
2011,07,24,02,40,10.90
2011,07,24,02,41,10.90
2011,07,24,02,42,10.90
2011,07,24,02,43,10.90
2011,07,24,02,44,10.90
2011,07,24,02,45,10.90
2011,07,24,02,46,10.90
2011,07,24,02,47,10.80
2011,07,24,02,48,10.80
2011,07,24,02,49,10.80
2011,07,24,02,50,10.80
2011,07,24,02,51,10.80
2011,07,24,02,52,10.90
2011,07,24,02,53,10.90
2011,07,24,02,54,11.00
2011,07,24,02,55,11.10
2011,07,24,02,56,11.10
2011,07,24,02,57,11.20
2011,07,24,02,58,11.30
2011,07,24,02,59,11.40
2011,07,24,03,00,11.50
2011,07,24,03,01,11.60
2011,07,24,03,02,11.70
2011,07,24,03,03,11.80
2011,07,24,03,04,11.80
2011,07,24,03,05,11.90
2011,07,24,03,06,12.00
2011,07,24,03,07,12.10
2011,07,24,03,08,12.20
2011,07,24,03,09,12.30
2011,07,24,03,10,12.30
2011,07,24,03,11,12.40
2011,07,24,03,12,12.50
2011,07,24,03,13,12.50
2011,07,24,03,14,12.60
2011,07,24,03,15,12.70
2011,07,24,03,16,12.70
2011,07,24,03,17,12.80
2011,07,24,03,18,12.80
2011,07,24,03,19,12.80
2011,07,24,03,20,12.80
2011,07,24,03,21,12.90
2011,07,24,03,22,12.90
2011,07,24,03,23,12.90
2011,07,24,03,24,12.90
2011,07,24,03,25,13.00
2011,07,24,03,26,13.00
2011,07,24,03,27,12.90
2011,07,24,03,28,12.90
2011,07,24,03,29,12.90
2011,07,24,03,30,12.90
2011,07,24,03,31,12.90
2011,07,24,03,32,12.90
2011,07,24,03,33,12.80
2011,07,24,03,34,12.80
2011,07,24,03,35,12.80
2011,07,24,03,36,12.80
2011,07,24,03,37,12.80
2011,07,24,03,38,12.80
2011,07,24,03,39,12.80
2011,07,24,03,40,12.90
2011,07,24,03,41,12.90
2011,07,24,03,42,13.00
2011,07,24,03,43,13.10
2011,07,24,03,44,13.10
2011,07,24,03,45,13.20
2011,07,24,03,46,13.20
2011,07,24,03,47,13.30
2011,07,24,03,48,13.30
2011,07,24,03,49,13.30
2011,07,24,03,50,13.40
2011,07,24,03,51,13.40
2011,07,24,03,52,13.50
2011,07,24,03,53,13.50
2011,07,24,03,54,13.50
2011,07,24,03,55,13.60
2011,07,24,03,56,13.60
2011,07,24,03,57,13.60
2011,07,24,03,58,13.60
2011,07,24,03,59,13.60
2011,07,24,04,00,13.70
2011,07,24,04,01,13.70
2011,07,24,04,02,13.70
2011,07,24,04,03,13.70
2011,07,24,04,04,13.70
2011,07,24,04,05,13.70
2011,07,24,04,06,13.70
2011,07,24,04,07,13.70
2011,07,24,04,08,13.70
2011,07,24,04,09,13.70
2011,07,24,04,10,13.70
2011,07,24,04,11,13.70
2011,07,24,04,12,13.70
2011,07,24,04,13,13.70
2011,07,24,04,14,13.70
2011,07,24,04,15,13.70
2011,07,24,04,16,13.70
2011,07,24,04,17,13.70
2011,07,24,04,18,13.70
2011,07,24,04,19,13.70
2011,07,24,04,20,13.70
2011,07,24,04,21,13.70
2011,07,24,04,22,13.70
2011,07,24,04,23,13.70
2011,07,24,04,24,13.60
2011,07,24,04,25,13.60
2011,07,24,04,26,13.60
2011,07,24,04,27,13.60
2011,07,24,04,28,13.60
2011,07,24,04,29,13.60
2011,07,24,04,30,13.60
2011,07,24,04,31,13.60
2011,07,24,04,32,13.60
2011,07,24,04,33,13.60
2011,07,24,04,34,13.60
2011,07,24,04,35,13.60
2011,07,24,04,36,13.60
2011,07,24,04,37,13.60
2011,07,24,04,38,13.60
2011,07,24,04,39,13.60
2011,07,24,04,40,13.60
2011,07,24,04,41,13.60
2011,07,24,04,42,13.60
2011,07,24,04,43,13.60
2011,07,24,04,44,13.60
2011,07,24,04,45,13.60
2011,07,24,04,46,13.60
2011,07,24,04,47,13.70
2011,07,24,04,48,13.70
2011,07,24,04,49,13.70
2011,07,24,04,50,13.70
2011,07,24,04,51,13.70
2011,07,24,04,52,13.70
2011,07,24,04,53,13.70
2011,07,24,04,54,13.70
2011,07,24,04,55,13.70
2011,07,24,04,56,13.70
2011,07,24,04,57,13.70
2011,07,24,04,58,13.70
2011,07,24,04,59,13.70
2011,07,24,05,00,13.70
2011,07,24,05,01,13.70
2011,07,24,05,02,13.70
2011,07,24,05,03,13.70
2011,07,24,05,04,13.70
2011,07,24,05,05,13.70
2011,07,24,05,06,13.60
2011,07,24,05,07,13.60
2011,07,24,05,08,13.60
2011,07,24,05,09,13.60
2011,07,24,05,10,13.60
2011,07,24,05,11,13.60
2011,07,24,05,12,13.60
2011,07,24,05,13,13.50
2011,07,24,05,14,13.50
2011,07,24,05,15,13.50
2011,07,24,05,16,13.50
2011,07,24,05,17,13.50
2011,07,24,05,18,13.50
2011,07,24,05,19,13.50
2011,07,24,05,20,13.50
2011,07,24,05,21,13.50
2011,07,24,05,22,13.50
2011,07,24,05,23,13.50
2011,07,24,05,24,13.40
2011,07,24,05,25,13.40
2011,07,24,05,26,13.40
2011,07,24,05,27,13.40
2011,07,24,05,28,13.40
2011,07,24,05,29,13.40
2011,07,24,05,30,13.40
2011,07,24,05,31,13.40
2011,07,24,05,32,13.40
2011,07,24,05,33,13.40
2011,07,24,05,34,13.40
2011,07,24,05,35,13.30
2011,07,24,05,36,13.30
2011,07,24,05,37,13.30
2011,07,24,05,38,13.30
2011,07,24,05,39,13.30
2011,07,24,05,40,13.30
2011,07,24,05,41,13.30
2011,07,24,05,42,13.30
2011,07,24,05,43,13.30
2011,07,24,05,44,13.20
2011,07,24,05,45,13.20
2011,07,24,05,46,13.20
2011,07,24,05,47,13.20
2011,07,24,05,48,13.20
2011,07,24,05,49,13.20
2011,07,24,05,50,13.20
2011,07,24,05,51,13.20
2011,07,24,05,52,13.20
2011,07,24,05,53,13.20
2011,07,24,05,54,13.20
2011,07,24,05,55,13.20
2011,07,24,05,56,13.20
2011,07,24,05,57,13.20
2011,07,24,05,58,13.20
2011,07,24,05,59,13.30
2011,07,24,06,00,13.30
2011,07,24,06,01,13.30
2011,07,24,06,02,13.30
2011,07,24,06,03,13.30
2011,07,24,06,04,13.30
2011,07,24,06,05,13.30
2011,07,24,06,06,13.30
2011,07,24,06,07,13.30
2011,07,24,06,08,13.30
2011,07,24,06,09,13.30
2011,07,24,06,10,13.30
2011,07,24,06,11,13.30
2011,07,24,06,12,13.30
2011,07,24,06,13,13.30
2011,07,24,06,14,13.30
2011,07,24,06,15,13.30
2011,07,24,06,16,13.30
2011,07,24,06,17,13.30
2011,07,24,06,18,13.30
2011,07,24,06,19,13.30
2011,07,24,06,20,13.30
2011,07,24,06,21,13.30
2011,07,24,06,22,13.30
2011,07,24,06,23,13.30
2011,07,24,06,24,13.30
2011,07,24,06,25,13.30
2011,07,24,06,26,13.20
2011,07,24,06,27,13.20
2011,07,24,06,28,13.20
2011,07,24,06,29,13.10
2011,07,24,06,30,13.10
2011,07,24,06,31,13.00
2011,07,24,06,32,13.00
2011,07,24,06,33,12.90
2011,07,24,06,34,12.90
2011,07,24,06,35,12.90
2011,07,24,06,36,12.80
2011,07,24,06,37,12.80
2011,07,24,06,38,12.80
2011,07,24,06,39,12.80
2011,07,24,06,40,12.80
2011,07,24,06,41,12.80
2011,07,24,06,42,12.70
2011,07,24,06,43,12.70
2011,07,24,06,44,12.70
2011,07,24,06,45,12.70
2011,07,24,06,46,12.70
2011,07,24,06,47,12.70
2011,07,24,06,48,12.70
2011,07,24,06,49,12.70
2011,07,24,06,50,12.70
2011,07,24,06,51,12.80
2011,07,24,06,52,12.80
2011,07,24,06,53,12.80
2011,07,24,06,54,12.80
2011,07,24,06,55,12.80
2011,07,24,06,56,12.80
2011,07,24,06,57,12.80
2011,07,24,06,58,12.90
2011,07,24,06,59,12.90
2011,07,24,07,00,12.90
2011,07,24,07,01,13.00
2011,07,24,07,02,13.00
2011,07,24,07,03,13.10
2011,07,24,07,04,13.10
2011,07,24,07,05,13.20
2011,07,24,07,06,13.30
2011,07,24,07,07,13.30
2011,07,24,07,08,13.40
2011,07,24,07,09,13.40
2011,07,24,07,10,13.50
2011,07,24,07,11,13.60
2011,07,24,07,12,13.60
2011,07,24,07,13,13.70
2011,07,24,07,14,13.70
2011,07,24,07,15,13.70
2011,07,24,07,16,13.70
2011,07,24,07,17,13.80
2011,07,24,07,18,13.80
2011,07,24,07,19,13.80
2011,07,24,07,20,13.90
2011,07,24,07,21,13.90
2011,07,24,07,22,13.90
2011,07,24,07,23,14.00
2011,07,24,07,24,14.00
2011,07,24,07,25,14.10
2011,07,24,07,26,14.20
2011,07,24,07,27,14.20
2011,07,24,07,28,14.30
2011,07,24,07,29,14.30
2011,07,24,07,30,14.40
2011,07,24,07,31,14.50
2011,07,24,07,32,14.60
2011,07,24,07,33,14.60
2011,07,24,07,34,14.70
2011,07,24,07,35,14.70
2011,07,24,07,36,14.80
2011,07,24,07,37,14.80
2011,07,24,07,38,14.90
2011,07,24,07,39,14.90
2011,07,24,07,40,15.00
2011,07,24,07,41,15.00
2011,07,24,07,42,15.10
2011,07,24,07,43,15.10
2011,07,24,07,44,15.20
2011,07,24,07,45,15.20
2011,07,24,07,46,15.20
2011,07,24,07,47,15.30
2011,07,24,07,48,15.30
2011,07,24,07,49,15.30
2011,07,24,07,50,15.40
2011,07,24,07,51,15.50
2011,07,24,07,52,15.50
2011,07,24,07,53,15.60
2011,07,24,07,54,15.60
2011,07,24,07,55,15.60
2011,07,24,07,56,15.70
2011,07,24,07,57,15.70
2011,07,24,07,58,15.70
2011,07,24,07,59,15.80
2011,07,24,08,00,15.80
2011,07,24,08,01,15.80
2011,07,24,08,02,15.90
2011,07,24,08,03,15.90
2011,07,24,08,04,16.00
2011,07,24,08,05,16.10
2011,07,24,08,06,16.10
2011,07,24,08,07,16.20
2011,07,24,08,08,16.20
2011,07,24,08,09,16.30
2011,07,24,08,10,16.40
2011,07,24,08,11,16.40
2011,07,24,08,12,16.40
2011,07,24,08,13,16.50
2011,07,24,08,14,16.60
2011,07,24,08,15,16.70
2011,07,24,08,16,16.70
2011,07,24,08,17,16.70
2011,07,24,08,18,16.70
2011,07,24,08,19,16.80
2011,07,24,08,20,16.80
2011,07,24,08,21,16.90
2011,07,24,08,22,16.90
2011,07,24,08,23,17.00
2011,07,24,08,24,17.00
2011,07,24,08,25,17.10
2011,07,24,08,26,17.30
2011,07,24,08,27,17.40
2011,07,24,08,28,17.50
2011,07,24,08,29,17.60
2011,07,24,08,30,17.70
2011,07,24,08,31,17.80
2011,07,24,08,32,17.90
2011,07,24,08,33,18.10
2011,07,24,08,34,18.20
2011,07,24,08,35,18.30
2011,07,24,08,36,18.30
2011,07,24,08,37,18.40
2011,07,24,08,38,18.40
2011,07,24,08,39,18.50
2011,07,24,08,40,18.60
2011,07,24,08,41,18.60
2011,07,24,08,42,18.70
2011,07,24,08,43,18.80
2011,07,24,08,44,18.90
2011,07,24,08,45,18.90
2011,07,24,08,46,19.00
2011,07,24,08,47,19.10
2011,07,24,08,48,19.10
2011,07,24,08,49,19.10
2011,07,24,08,50,19.10
2011,07,24,08,51,19.10
2011,07,24,08,52,19.20
2011,07,24,08,53,19.20
2011,07,24,08,54,19.30
2011,07,24,08,55,19.40
2011,07,24,08,56,19.40
2011,07,24,08,57,19.50
2011,07,24,08,58,19.50
2011,07,24,08,59,19.60
2011,07,24,09,00,19.60
2011,07,24,09,01,19.60
2011,07,24,09,02,19.70
2011,07,24,09,03,19.70
2011,07,24,09,04,19.80
2011,07,24,09,05,19.90
2011,07,24,09,06,19.90
2011,07,24,09,07,19.90
2011,07,24,09,08,19.90
2011,07,24,09,09,19.90
2011,07,24,09,10,20.00
2011,07,24,09,11,20.10
2011,07,24,09,12,20.10
2011,07,24,09,13,20.20
2011,07,24,09,14,20.20
2011,07,24,09,15,20.20
2011,07,24,09,16,20.20
2011,07,24,09,17,20.30
2011,07,24,09,18,20.20
2011,07,24,09,19,20.20
2011,07,24,09,20,20.20
2011,07,24,09,21,20.20
2011,07,24,09,22,20.20
2011,07,24,09,23,20.20
2011,07,24,09,24,20.20
2011,07,24,09,25,20.20
2011,07,24,09,26,20.20
2011,07,24,09,27,20.20
2011,07,24,09,28,20.30
2011,07,24,09,29,20.30
2011,07,24,09,30,20.30
2011,07,24,09,31,20.30
2011,07,24,09,32,20.30
2011,07,24,09,33,20.30
2011,07,24,09,34,20.30
2011,07,24,09,35,20.30
2011,07,24,09,36,20.40
2011,07,24,09,37,20.40
2011,07,24,09,38,20.50
2011,07,24,09,39,20.50
2011,07,24,09,40,20.50
2011,07,24,09,41,20.50
2011,07,24,09,42,20.50
2011,07,24,09,43,20.40
2011,07,24,09,44,20.40
2011,07,24,09,45,20.40
2011,07,24,09,46,20.50
2011,07,24,09,47,20.50
2011,07,24,09,48,20.60
2011,07,24,09,49,20.60
2011,07,24,09,50,20.60
2011,07,24,09,51,20.60
2011,07,24,09,52,20.60
2011,07,24,09,53,20.60
2011,07,24,09,54,20.60
2011,07,24,09,55,20.60
2011,07,24,09,56,20.60
2011,07,24,09,57,20.60
2011,07,24,09,58,20.70
2011,07,24,09,59,20.70
2011,07,24,10,00,20.70
2011,07,24,10,01,20.80
2011,07,24,10,02,20.80
2011,07,24,10,03,20.90
2011,07,24,10,04,20.90
2011,07,24,10,05,21.00
2011,07,24,10,06,21.00
2011,07,24,10,07,21.00
2011,07,24,10,08,21.00
2011,07,24,10,09,21.00
2011,07,24,10,10,21.00
2011,07,24,10,11,21.10
2011,07,24,10,12,21.10
2011,07,24,10,13,21.10
2011,07,24,10,14,21.10
2011,07,24,10,15,21.10
2011,07,24,10,16,21.10
2011,07,24,10,17,21.10
2011,07,24,10,18,21.10
2011,07,24,10,19,21.10
2011,07,24,10,20,21.10
2011,07,24,10,21,21.10
2011,07,24,10,22,21.10
2011,07,24,10,23,21.00
2011,07,24,10,24,21.00
2011,07,24,10,25,21.00
2011,07,24,10,26,21.00
2011,07,24,10,27,21.00
2011,07,24,10,28,21.10
2011,07,24,10,29,21.00
2011,07,24,10,30,21.00
2011,07,24,10,31,21.00
2011,07,24,10,32,21.00
2011,07,24,10,33,21.00
2011,07,24,10,34,21.00
2011,07,24,10,35,21.10
2011,07,24,10,36,21.10
2011,07,24,10,37,21.20
2011,07,24,10,38,21.20
2011,07,24,10,39,21.30
2011,07,24,10,40,21.40
2011,07,24,10,41,21.50
2011,07,24,10,42,21.60
2011,07,24,10,43,21.60
2011,07,24,10,44,21.70
2011,07,24,10,45,21.80
2011,07,24,10,46,21.80
2011,07,24,10,47,21.90
2011,07,24,10,48,21.90
2011,07,24,10,49,22.00
2011,07,24,10,50,22.00
2011,07,24,10,51,21.90
2011,07,24,10,52,21.80
2011,07,24,10,53,21.70
2011,07,24,10,54,21.80
2011,07,24,10,55,21.80
2011,07,24,10,56,21.90
2011,07,24,10,57,21.90
2011,07,24,10,58,21.90
2011,07,24,10,59,21.90
2011,07,24,11,00,22.00
2011,07,24,11,01,22.00
2011,07,24,11,02,22.10
2011,07,24,11,03,22.20
2011,07,24,11,04,22.30
2011,07,24,11,05,22.30
2011,07,24,11,06,22.30
2011,07,24,11,07,22.40
2011,07,24,11,08,22.50
2011,07,24,11,09,22.60
2011,07,24,11,10,22.70
2011,07,24,11,11,22.80
2011,07,24,11,12,22.80
2011,07,24,11,13,22.80
2011,07,24,11,14,22.80
2011,07,24,11,15,22.80
2011,07,24,11,16,22.80
2011,07,24,11,17,22.80
2011,07,24,11,18,22.80
2011,07,24,11,19,22.80
2011,07,24,11,20,22.80
2011,07,24,11,21,22.80
2011,07,24,11,22,22.90
2011,07,24,11,23,22.90
2011,07,24,11,24,22.90
2011,07,24,11,25,22.90
2011,07,24,11,26,22.90
2011,07,24,11,27,22.90
2011,07,24,11,28,22.90
2011,07,24,11,29,23.00
2011,07,24,11,30,23.10
2011,07,24,11,31,23.10
2011,07,24,11,32,23.10
2011,07,24,11,33,23.10
2011,07,24,11,34,23.10
2011,07,24,11,35,23.20
2011,07,24,11,36,23.20
2011,07,24,11,37,23.30
2011,07,24,11,38,23.30
2011,07,24,11,39,23.30
2011,07,24,11,40,23.50
2011,07,24,11,41,23.60
2011,07,24,11,42,23.70
2011,07,24,11,43,23.70
2011,07,24,11,44,23.80
2011,07,24,11,45,23.90
2011,07,24,11,46,23.90
2011,07,24,11,47,23.90
2011,07,24,11,48,23.90
2011,07,24,11,49,23.80
2011,07,24,11,50,23.90
2011,07,24,11,51,23.90
2011,07,24,11,52,23.90
2011,07,24,11,53,23.90
2011,07,24,11,54,24.00
2011,07,24,11,55,24.10
2011,07,24,11,56,24.10
2011,07,24,11,57,24.10
2011,07,24,11,58,24.20
2011,07,24,11,59,24.20
2011,07,24,12,00,24.30
2011,07,24,12,01,24.30
2011,07,24,12,02,24.30
2011,07,24,12,03,24.20
2011,07,24,12,04,24.20
2011,07,24,12,05,24.10
2011,07,24,12,06,24.10
2011,07,24,12,07,24.10
2011,07,24,12,08,24.10
2011,07,24,12,09,24.10
2011,07,24,12,10,24.20
2011,07,24,12,11,24.20
2011,07,24,12,12,24.30
2011,07,24,12,13,24.20
2011,07,24,12,14,24.20
2011,07,24,12,15,24.20
2011,07,24,12,16,24.20
2011,07,24,12,17,24.20
2011,07,24,12,18,24.20
2011,07,24,12,19,24.20
2011,07,24,12,20,24.20
2011,07,24,12,21,24.20
2011,07,24,12,22,24.30
2011,07,24,12,23,24.30
2011,07,24,12,24,24.30
2011,07,24,12,25,24.30
2011,07,24,12,26,24.30
2011,07,24,12,27,24.40
2011,07,24,12,28,24.40
2011,07,24,12,29,24.50
2011,07,24,12,30,24.60
2011,07,24,12,31,24.70
2011,07,24,12,32,24.80
2011,07,24,12,33,24.90
2011,07,24,12,34,25.00
2011,07,24,12,35,25.20
2011,07,24,12,36,25.30
2011,07,24,12,37,25.40
2011,07,24,12,38,25.50
2011,07,24,12,39,25.50
2011,07,24,12,40,25.50
2011,07,24,12,41,25.50
2011,07,24,12,42,25.60
2011,07,24,12,43,25.60
2011,07,24,12,44,25.70
2011,07,24,12,45,25.70
2011,07,24,12,46,25.60
2011,07,24,12,47,25.60
2011,07,24,12,48,25.60
2011,07,24,12,49,25.50
2011,07,24,12,50,25.50
2011,07,24,12,51,25.50
2011,07,24,12,52,25.60
2011,07,24,12,53,25.60
2011,07,24,12,54,25.70
2011,07,24,12,55,25.80
2011,07,24,12,56,25.80
2011,07,24,12,57,25.80
2011,07,24,12,58,25.80
2011,07,24,12,59,25.80
2011,07,24,13,00,25.80
2011,07,24,13,01,25.80
2011,07,24,13,02,25.80
2011,07,24,13,03,25.60
2011,07,24,13,04,25.60
2011,07,24,13,05,25.60
2011,07,24,13,06,25.60
2011,07,24,13,07,25.60
2011,07,24,13,08,25.60
2011,07,24,13,09,25.70
2011,07,24,13,10,25.80
2011,07,24,13,11,25.90
2011,07,24,13,12,25.90
2011,07,24,13,13,25.90
2011,07,24,13,14,25.90
2011,07,24,13,15,25.90
2011,07,24,13,16,26.00
2011,07,24,13,17,26.00
2011,07,24,13,18,25.90
2011,07,24,13,19,25.90
2011,07,24,13,20,25.80
2011,07,24,13,21,25.80
2011,07,24,13,22,25.80
2011,07,24,13,23,25.80
2011,07,24,13,24,25.90
2011,07,24,13,25,25.90
2011,07,24,13,26,25.90
2011,07,24,13,27,26.00
2011,07,24,13,28,26.00
2011,07,24,13,29,26.00
2011,07,24,13,30,26.00
2011,07,24,13,31,25.90
2011,07,24,13,32,25.90
2011,07,24,13,33,26.00
2011,07,24,13,34,26.10
2011,07,24,13,35,26.20
2011,07,24,13,36,26.30
2011,07,24,13,37,26.30
2011,07,24,13,38,26.40
2011,07,24,13,39,26.40
2011,07,24,13,40,26.40
2011,07,24,13,41,26.40
2011,07,24,13,42,26.30
2011,07,24,13,43,26.20
2011,07,24,13,44,26.10
2011,07,24,13,45,26.10
2011,07,24,13,46,26.10
2011,07,24,13,47,26.20
2011,07,24,13,48,26.30
2011,07,24,13,49,26.30
2011,07,24,13,50,26.30
2011,07,24,13,51,26.40
2011,07,24,13,52,26.40
2011,07,24,13,53,26.50
2011,07,24,13,54,26.60
2011,07,24,13,55,26.60
2011,07,24,13,56,26.70
2011,07,24,13,57,26.80
2011,07,24,13,58,26.90
2011,07,24,13,59,26.90
2011,07,24,14,00,26.90
2011,07,24,14,01,26.80
2011,07,24,14,02,26.80
2011,07,24,14,03,26.90
2011,07,24,14,04,26.90
2011,07,24,14,05,26.80
2011,07,24,14,06,26.90
2011,07,24,14,07,26.90
2011,07,24,14,08,26.90
2011,07,24,14,09,27.00
2011,07,24,14,10,27.10
2011,07,24,14,11,27.20
2011,07,24,14,12,27.20
2011,07,24,14,13,27.20
2011,07,24,14,14,27.20
2011,07,24,14,15,27.20
2011,07,24,14,16,27.20
2011,07,24,14,17,27.10
2011,07,24,14,18,27.10
2011,07,24,14,19,27.20
2011,07,24,14,20,27.20
2011,07,24,14,21,27.20
2011,07,24,14,22,27.20
2011,07,24,14,23,27.20
2011,07,24,14,24,27.20
2011,07,24,14,25,27.20
2011,07,24,14,26,27.20
2011,07,24,14,27,27.20
2011,07,24,14,28,27.20
2011,07,24,14,29,27.20
2011,07,24,14,30,27.30
2011,07,24,14,31,27.30
2011,07,24,14,32,27.30
2011,07,24,14,33,27.30
2011,07,24,14,34,27.40
2011,07,24,14,35,27.40
2011,07,24,14,36,27.40
2011,07,24,14,37,27.40
2011,07,24,14,38,27.40
2011,07,24,14,39,27.40
2011,07,24,14,40,27.50
2011,07,24,14,41,27.40
2011,07,24,14,42,27.50
2011,07,24,14,43,27.60
2011,07,24,14,44,27.70
2011,07,24,14,45,27.70
2011,07,24,14,46,27.80
2011,07,24,14,47,27.80
2011,07,24,14,48,27.80
2011,07,24,14,49,27.80
2011,07,24,14,50,27.90
2011,07,24,14,51,27.90
2011,07,24,14,52,27.90
2011,07,24,14,53,27.90
2011,07,24,14,54,27.90
2011,07,24,14,55,27.80
2011,07,24,14,56,27.80
2011,07,24,14,57,27.80
2011,07,24,14,58,27.80
2011,07,24,14,59,27.80
2011,07,24,15,00,27.80
2011,07,24,15,01,27.80
2011,07,24,15,02,27.80
2011,07,24,15,03,27.80
2011,07,24,15,04,27.80
2011,07,24,15,05,27.90
2011,07,24,15,06,27.90
2011,07,24,15,07,27.90
2011,07,24,15,08,28.00
2011,07,24,15,09,28.00
2011,07,24,15,10,28.00
2011,07,24,15,11,28.00
2011,07,24,15,12,28.00
2011,07,24,15,13,28.00
2011,07,24,15,14,28.00
2011,07,24,15,15,28.00
2011,07,24,15,16,28.10
2011,07,24,15,17,28.10
2011,07,24,15,18,28.20
2011,07,24,15,19,28.30
2011,07,24,15,20,28.30
2011,07,24,15,21,28.40
2011,07,24,15,22,28.50
2011,07,24,15,23,28.60
2011,07,24,15,24,28.70
2011,07,24,15,25,28.70
2011,07,24,15,26,28.80
2011,07,24,15,27,28.80
2011,07,24,15,28,28.80
2011,07,24,15,29,28.90
2011,07,24,15,30,28.90
2011,07,24,15,31,28.90
2011,07,24,15,32,28.90
2011,07,24,15,33,28.90
2011,07,24,15,34,28.90
2011,07,24,15,35,28.90
2011,07,24,15,36,28.90
2011,07,24,15,37,28.90
2011,07,24,15,38,28.90
2011,07,24,15,39,28.90
2011,07,24,15,40,28.90
2011,07,24,15,41,28.90
2011,07,24,15,42,28.90
2011,07,24,15,43,28.90
2011,07,24,15,44,28.90
2011,07,24,15,45,28.90
2011,07,24,15,46,28.80
2011,07,24,15,47,28.70
2011,07,24,15,48,28.60
2011,07,24,15,49,28.50
2011,07,24,15,50,28.40
2011,07,24,15,51,28.40
2011,07,24,15,52,28.30
2011,07,24,15,53,28.30
2011,07,24,15,54,28.20
2011,07,24,15,55,28.20
2011,07,24,15,56,28.20
2011,07,24,15,57,28.20
2011,07,24,15,58,28.10
2011,07,24,15,59,28.00
2011,07,24,16,00,27.90
2011,07,24,16,01,27.90
2011,07,24,16,02,27.70
2011,07,24,16,03,27.60
2011,07,24,16,04,27.50
2011,07,24,16,05,27.40
2011,07,24,16,06,27.30
2011,07,24,16,07,27.30
2011,07,24,16,08,27.30
2011,07,24,16,09,27.30
2011,07,24,16,10,27.30
2011,07,24,16,11,27.30
2011,07,24,16,12,27.30
2011,07,24,16,13,27.30
2011,07,24,16,14,27.30
2011,07,24,16,15,27.20
2011,07,24,16,16,27.20
2011,07,24,16,17,27.10
2011,07,24,16,18,27.10
2011,07,24,16,19,27.10
2011,07,24,16,20,27.00
2011,07,24,16,21,26.90
2011,07,24,16,22,26.80
2011,07,24,16,23,26.80
2011,07,24,16,24,26.70
2011,07,24,16,25,26.70
2011,07,24,16,26,26.60
2011,07,24,16,27,26.60
2011,07,24,16,28,26.60
2011,07,24,16,29,26.60
2011,07,24,16,30,26.60
2011,07,24,16,31,26.50
2011,07,24,16,32,26.40
2011,07,24,16,33,26.40
2011,07,24,16,34,26.40
2011,07,24,16,35,26.40
2011,07,24,16,36,26.30
2011,07,24,16,37,26.30
2011,07,24,16,38,26.30
2011,07,24,16,39,26.30
2011,07,24,16,40,26.30
2011,07,24,16,41,26.30
2011,07,24,16,42,26.30
2011,07,24,16,43,26.30
2011,07,24,16,44,26.30
2011,07,24,16,45,26.30
2011,07,24,16,46,26.30
2011,07,24,16,47,26.30
2011,07,24,16,48,26.40
2011,07,24,16,49,26.40
2011,07,24,16,50,26.40
2011,07,24,16,51,26.40
2011,07,24,16,52,26.40
2011,07,24,16,53,26.40
2011,07,24,16,54,26.40
2011,07,24,16,55,26.30
2011,07,24,16,56,26.30
2011,07,24,16,57,26.20
2011,07,24,16,58,26.20
2011,07,24,16,59,26.20
2011,07,24,17,00,26.10
2011,07,24,17,01,26.10
2011,07,24,17,02,26.10
2011,07,24,17,03,26.00
2011,07,24,17,04,26.00
2011,07,24,17,05,26.00
2011,07,24,17,06,25.90
2011,07,24,17,07,25.90
2011,07,24,17,08,25.90
2011,07,24,17,09,25.90
2011,07,24,17,10,25.90
2011,07,24,17,11,25.90
2011,07,24,17,12,25.80
2011,07,24,17,13,25.80
2011,07,24,17,14,25.80
2011,07,24,17,15,25.80
2011,07,24,17,16,25.70
2011,07,24,17,17,25.70
2011,07,24,17,18,25.70
2011,07,24,17,19,25.80